Regional Weather Roundup
Issued by NWS

Home | Current Version | Previous Version | Graphics & Text | Print | Product List | Glossary On
Versions: 1 2 3 4 5 6 7 8 9 10 11 12 13 14 15 16 17 18 19 20 21 22 23 24 25 26 27 28 29 30 31 32 33 34 35 36 37 38 39 40 41 42 43 44 45 46 47 48 49 50
000
ASUS43 KLOT 130603
RWRIL

ILLINOIS REGIONAL WEATHER ROUNDUP
NATIONAL WEATHER SERVICE CHICAGO/ROMEOVILLE IL
1200 AM CST SAT FEB 13 2016

NOTE: "FAIR" INDICATES FEW OR NO CLOUDS BELOW 12,000 FEET WITH NO
SIGNIFICANT WEATHER AND/OR OBSTRUCTIONS TO VISIBILITY.

* THESE STATIONS ARE NOT UNDER NWS QUALITY CONTROL. THEY ALSO MAY NOT
  REPORT WEATHER SUCH AS PRECIPITATION OR FOG.

ILZ001-002-007-009-015-016-024-130700-
NORTHWEST ILLINOIS

CITY           SKY/WX    TMP DP  RH WIND       PRES   REMARKS
MOLINE         CLEAR      9  -4  55 NW12      30.57R WCI  -6
6HR MIN TEMP:   8; 6HR MAX TEMP:  16;

STERLING*      CLEAR      9  -8  47 N12       30.51R WCI  -6
SAVANNA*       CLEAR      8 -10  45 N6        30.56R WCI  -2
$$

ILZ003-004-008-010-011-017-018-130700-
NORTH CENTRAL ILLINOIS

CITY           SKY/WX    TMP DP  RH WIND       PRES   REMARKS
ROCKFORD       CLEAR      7  -8  50 N16       30.53R WCI -11
6HR MIN TEMP:   7; 6HR MAX TEMP:  17;

FREEPORT*      PTCLDY     6 -10  47 N14G22    30.53R WCI -11
ROCHELLE*      PTCLDY     7  -7  52 NW15      30.51R WCI -10
DE KALB*       PTCLDY     6  -8  51 N17G23    30.48R WCI -12
$$

ILZ005-006-012>014-019>023-130700-
NORTHEAST ILLINOIS

CITY           SKY/WX    TMP DP  RH WIND       PRES   REMARKS
CHICAGO-OHARE  PTCLDY     7  -8  50 NW18      30.47R WCI -12
6HR MIN TEMP:   7; 6HR MAX TEMP:  17;

CHICAGO-MIDWAY PTCLDY     9  -9  44 NW18      30.47R WCI -10
6HR MIN TEMP:   9; 6HR MAX TEMP:  19;

AURORA         CLEAR      8  -7  50 N17       30.49R WCI -10
6HR MIN TEMP:   8; 6HR MAX TEMP:  19;

LANSING*       CLEAR      9  -8  46 NW13G20   30.46R WCI  -7
WAUKEGAN       CLEAR      4 -11  50 NW12G22   30.46R WCI -12
6HR MIN TEMP:   4; 6HR MAX TEMP:  14;

DUPAGE AIRPORT CLEAR      6 -10  47 N20G28    30.47R WCI -14
6HR MIN TEMP:   6; 6HR MAX TEMP:  16;

WHEELING       CLEAR      6  -9  50 N15G25    30.48R WCI -12
6HR MIN TEMP:   6; 6HR MAX TEMP:  16;

NORTHERLY ISL    N/A     10  -5  50 W12         N/A  WCI  -4
$$

LMZ740>746-130700-
SOUTHERN LAKE MICHIGAN

STATION/POSITION SKY/WX   TEMP    WIND        PRES    VSBY  WAVE
                          AIR SEA DIR/SP/G                  HT/PER
                          (F)     (DEG/KT/KT) (MB)    (MI)  (FT/S)
HARRISON CRIB              11     310/ 23/ 25   N/A
BURNHAM HARBOR             11     290/ 13/ 20   N/A
CALUMET HARBOR             10     300/ 11/ 18 1030.0R
BURNS HARBOR               15     330/ 22     1029.5R
MICHIGAN CITY              15     310/ 30/ 36   N/A
$$

ILZ025>027-034>036-040-047-049-050-058-095>099-130700-
WEST-CENTRAL ILLINOIS

CITY           SKY/WX    TMP DP  RH WIND       PRES   REMARKS
QUINCY         CLEAR     10   0  63 NW13      30.57R WCI  -5
MACOMB*        CLOUDY    10   2  68 NW17G23   30.59R WCI  -7
$$

ILZ028>032-037-038-041>044-048-051>054-059>061-130700-
CENTRAL ILLINOIS

CITY           SKY/WX    TMP DP  RH WIND       PRES   REMARKS
BLOOMINGTON    CLEAR     10   2  70 NW10      30.49R WCI  -4
DECATUR        CLEAR     13   2  61 NW13      30.50R WCI  -2
PEORIA         CLEAR     10  -2  58 NW7       30.54R WCI  -1
6HR MIN TEMP:  10; 6HR MAX TEMP:  19;

LINCOLN*       CLEAR     12   2  64 NW9       30.53R WCI   0
SPRINGFIELD    CLEAR     14  -1  51 N12       30.54R WCI   0
6HR MIN TEMP:  14; 6HR MAX TEMP:  24;

TAYLORVILLE    NOT AVBL
$$

ILZ033-039-045-046-055>057-062-063-130700-
EAST-CENTRAL ILLINOIS

CITY           SKY/WX    TMP DP  RH WIND       PRES   REMARKS
CHAMPAIGN      CLEAR     13   3  64 NW16      30.46R WCI  -3
MATTOON        CLEAR     13   3  64 NW17      30.47R WCI  -4
$$

ILZ079-100>102-130700-
SOUTHWEST ILLINOIS

CITY           SKY/WX    TMP DP  RH WIND       PRES   REMARKS
ALTON          CLEAR     16   4  59 NW13G18   30.54S WCI   3
BELLEVILLE     CLEAR     19   5  56 NW13      30.53R WCI   5
CAHOKIA*       CLEAR     20   2  45 N17       30.55R WCI   5
SPARTA*        CLEAR     20   8  58 N8        30.53R WCI  11
$$

ILZ064>066-069>071-074>076-080>082-084>086-088>090-092>094-130700-
SOUTH-CENTRAL ILLINOIS

CITY           SKY/WX    TMP DP  RH WIND       PRES   REMARKS
CARBONDALE     CLEAR     22   7  52 N16       30.51R WCI   8
6HR MIN TEMP:  22; 6HR MAX TEMP:  29;

MARION         CLEAR     23   9  54 NW6       30.51R WCI  16
MT. VERNON     CLEAR     19   5  53 N3        30.50R
CENTRALIA*     CLEAR     20   9  61 N18G24    30.50R WCI   5
SALEM*         CLEAR     19   6  55 NW15      30.51R WCI   5
$$

ILZ067-068-072-073-078-083-087-091-130700-
SOUTHEAST ILLINOIS

CITY           SKY/WX    TMP DP  RH WIND       PRES   REMARKS
LAWRENCEVILLE  CLEAR     18   5  57 N16       30.47R WCI   3
HARRISBURG*    CLEAR     22  12  64 NW9       30.50R WCI  12
ROBINSON*      CLEAR     16   6  65 NW13      30.48R WCI   2
$$

ABBREVIATIONS USED IN REMARKS
   TC - TEMPERATURE IN CELSIUS
  WCI - WIND CHILL INDEX
   HX - HEAT INDEX
  VSB - VISIBILITY
$$




USA.gov is the U.S. government's official web portal to all federal, state and local government web resources and services.